FW2297 Weather Reports


Display with metric or nautical units.
time (UTC)temp
F
wind
direction
speed
MPH
gust
MPH
rain 1hr
in
rain 24hr
in
rain mn
in
humidity
%
barometer
mb
20260510065051 44 0 0.0 0.0 0.01 0.39 0.01 95 1011.0
20260510064600 44 0 0.0 0.0 0.01 0.39 0.01 95 1011.0
20260510064051 44 0 0.0 0.0 0.01 0.39 0.01 95 1011.0
20260510063552 44 0 0.0 0.0 0.01 0.39 0.01 95 1011.0
20260510063057 44 0 0.0 0.0 0.01 0.39 0.01 95 1010.9
20260510062554 44 0 0.0 0.0 0.01 0.39 0.01 95 1011.0
20260510062049 44 0 0.0 0.0 0.01 0.39 0.01 95 1011.1
20260510061602 44 0 0.0 0.0 0.00 0.38 0.00 95 1011.1
20260510061052 44 0 0.0 0.0 0.00 0.38 0.00 95 1011.0
20260510060552 44 0 0.0 0.0 0.00 0.38 0.00 95 1010.9
20260510060053 44 0 0.0 0.0 0.00 0.38 0.00 95 1010.8
20260510055551 44 0 0.0 0.0 0.00 0.38 0.00 95 1010.9
20260510055051 44 0 0.0 0.0 0.00 0.38 0.00 95 1010.9
20260510054552 44 0 0.0 0.0 0.00 0.38 0.00 95 1010.9
20260510054050 44 0 0.0 0.0 0.00 0.38 0.00 95 1011.0
20260510053555 44 0 0.0 0.0 0.00 0.38 0.00 95 1011.2
20260510053057 44 0 0.0 0.0 0.00 0.38 0.00 95 1011.3
20260510052552 44 0 0.0 0.0 0.00 0.38 0.00 95 1011.2
20260510052051 44 0 0.0 0.0 0.00 0.38 0.00 95 1011.3
20260510051554 44 0 0.0 0.0 0.00 0.38 0.00 95 1011.3
20260510051052 44 0 0.0 0.0 0.00 0.38 0.00 95 1011.2
20260510050551 44 0 0.0 0.0 0.00 0.38 0.00 95 1011.3
20260510050052 44 0 0.0 0.0 0.00 0.38 0.00 95 1011.2
20260510045552 44 0 0.0 0.0 0.00 0.38 0.00 95 1011.3
20260510045052 44 0 0.0 0.0 0.00 0.38 0.00 95 1011.3
20260510044551 44 0 0.0 0.0 0.00 0.38 0.00 95 1011.3
20260510044053 44 0 0.0 0.0 0.00 0.38 0.00 95 1011.4
20260510043551 44 0 0.0 0.0 0.00 0.38 0.00 95 1011.4
20260510043100 44 0 0.0 0.0 0.00 0.38 0.00 95 1011.5
20260510042553 44 0 0.0 0.0 0.00 0.38 0.00 95 1011.4
20260510042055 44 0 0.0 0.0 0.00 0.38 0.00 95 1011.4
20260510041552 44 0 0.0 0.0 0.00 0.38 0.00 95 1011.2
20260510041051 43 0 0.0 0.0 0.00 0.38 0.00 95 1011.4
20260510040551 44 0 0.0 0.0 0.00 0.38 0.00 95 1011.3
20260510040104 43 0 0.0 0.0 0.00 0.38 0.00 95 1011.3
20260510035552 43 0 0.0 0.0 0.00 0.38 0.38 95 1011.4
20260510035051 43 0 0.0 0.0 0.00 0.38 0.38 95 1011.4
20260510034559 43 0 0.0 0.0 0.00 0.38 0.38 95 1011.5
20260510034052 44 0 0.0 0.0 0.00 0.38 0.38 95 1011.5
20260510033553 44 0 0.0 0.0 0.00 0.38 0.38 95 1011.5
20260510033053 44 0 0.0 0.0 0.00 0.38 0.38 95 1011.6
20260510032551 44 0 0.0 0.0 0.00 0.38 0.38 95 1011.6
20260510032051 44 0 0.0 0.0 0.00 0.38 0.38 95 1011.6
20260510031602 44 0 0.0 0.0 0.00 0.38 0.38 95 1011.7
20260510031048 44 0 0.0 0.0 0.00 0.38 0.38 95 1011.7
20260510030553 44 0 0.0 0.0 0.00 0.38 0.38 95 1011.9
20260510030057 44 0 0.0 0.0 0.00 0.38 0.38 95 1011.9
20260510025551 44 0 0.0 0.0 0.00 0.38 0.38 95 1011.8
20260510025052 44 0 0.0 0.0 0.00 0.38 0.38 95 1011.8
20260510024553 44 0 0.0 0.0 0.00 0.38 0.38 95 1011.9
20260510024054 44 0 0.0 0.0 0.00 0.38 0.38 95 1011.8
20260510023550 44 0 0.0 0.0 0.00 0.38 0.38 95 1011.9
20260510023052 44 0 0.0 0.0 0.00 0.38 0.38 95 1011.9
20260510022551 43 0 0.0 0.0 0.00 0.38 0.38 95 1011.8
20260510022052 44 0 0.0 0.0 0.00 0.38 0.38 94 1012.1
20260510021552 44 0 0.0 0.0 0.00 0.38 0.38 94 1012.1
20260510021051 44 0 0.0 0.0 0.00 0.38 0.38 94 1012.2
20260510020551 44 0 0.0 2.0 0.00 0.38 0.38 94 1012.1
20260510020051 44 0 0.0 3.0 0.00 0.38 0.38 94 1012.1
20260510015551 44 0 0.0 3.0 0.00 0.38 0.38 94 1011.8
20260510015051 44 0 0.0 1.0 0.00 0.38 0.38 94 1011.9
20260510014554 44 0 0.0 2.0 0.00 0.38 0.38 94 1012.0
20260510014051 44 0 0.0 3.0 0.00 0.38 0.38 94 1012.1
20260510013548 44 0 0.0 4.0 0.00 0.38 0.38 94 1012.3
20260510013106 44 0 0.0 4.0 0.00 0.38 0.38 94 1012.1
20260510012548 44 0 0.0 2.0 0.00 0.38 0.38 94 1012.4
20260510012052 44 0 0.0 1.0 0.00 0.38 0.38 94 1012.4
20260510011552 44 0 0.0 0.0 0.00 0.38 0.38 94 1012.3
20260510011051 44 0 0.0 0.0 0.00 0.38 0.38 94 1012.3
20260510010551 44 0 0.0 4.0 0.00 0.38 0.38 94 1012.2
20260510010056 44 0 0.0 5.0 0.00 0.38 0.38 94 1012.2
20260510005552 44 0 0.0 5.0 0.00 0.38 0.38 94 1012.1
20260510005048 44 0 0.0 5.0 0.00 0.38 0.38 94 1012.0
20260510004551 44 0 0.0 0.0 0.00 0.38 0.38 94 1012.2
20260510004051 44 0 0.0 0.0 0.00 0.38 0.38 94 1012.2
20260510003549 44 0 0.0 0.0 0.00 0.38 0.38 94 1012.1
20260510003054 44 0 0.0 0.0 0.01 0.38 0.38 94 1012.1
20260510002550 44 0 0.0 0.0 0.01 0.38 0.38 94 1011.7
20260510002048 44 0 0.0 2.0 0.01 0.38 0.38 94 1011.7
20260510001554 44 0 0.0 2.0 0.01 0.38 0.38 94 1011.7
20260510001049 44 0 0.0 0.0 0.01 0.38 0.38 94 1011.5
20260510000549 44 0 0.0 4.0 0.01 0.38 0.38 94 1011.5
20260510000052 44 0 0.0 4.0 0.01 0.38 0.38 94 1011.4
20260509235551 44 0 0.0 4.0 0.01 0.38 0.38 94 1011.4
20260509235051 44 0 0.0 2.0 0.01 0.38 0.38 94 1011.5
20260509234552 44 0 0.0 7.0 0.01 0.38 0.38 94 1011.5
20260509234050 44 0 0.0 7.0 0.02 0.38 0.38 94 1011.5
20260509233553 44 0 0.0 7.0 0.02 0.38 0.38 94 1011.4
20260509233055 44 0 0.0 1.0 0.01 0.37 0.37 94 1011.4
20260509232551 44 0 0.0 5.0 0.01 0.37 0.37 94 1011.5
20260509232049 44 0 0.0 6.0 0.01 0.37 0.37 94 1011.6
20260509231600 44 0 0.0 6.0 0.02 0.37 0.37 94 1011.5
20260509231049 44 0 0.0 4.0 0.02 0.37 0.37 94 1011.5
20260509230549 44 0 0.0 4.0 0.03 0.37 0.37 94 1011.5
20260509230052 44 0 0.0 7.0 0.03 0.37 0.37 94 1011.7
20260509225550 45 0 0.0 7.0 0.04 0.37 0.37 94 1011.6
20260509225050 45 0 0.0 7.0 0.04 0.37 0.37 93 1011.5
20260509224551 45 104 0.0 10.0 0.04 0.37 0.37 93 1011.6
20260509224051 45 138 0.0 10.0 0.03 0.36 0.36 93 1011.7
20260509223552 45 0 0.0 10.0 0.03 0.36 0.36 93 1011.5
20260509223056 45 0 0.0 2.0 0.03 0.36 0.36 93 1011.6
20260509222551 45 0 0.0 2.0 0.03 0.36 0.36 93 1011.6
20260509222049 45 0 0.0 0.0 0.04 0.36 0.36 93 1011.7
20260509221554 45 0 0.0 3.0 0.03 0.35 0.35 93 1011.9
20260509221051 45 0 0.0 5.0 0.03 0.35 0.35 93 1011.8
20260509220551 45 0 0.0 5.0 0.02 0.34 0.34 93 1011.8
20260509220057 45 0 0.0 5.0 0.02 0.34 0.34 93 1011.7
20260509215548 45 0 0.0 6.0 0.02 0.33 0.33 93 1011.7
20260509215051 45 0 0.0 9.0 0.02 0.33 0.33 93 1011.8
20260509214554 45 0 0.0 9.0 0.03 0.33 0.33 93 1011.8
20260509214050 45 0 0.0 5.0 0.03 0.33 0.33 93 1011.9
20260509213551 45 90 0.0 5.0 0.03 0.33 0.33 93 1011.7
20260509213053 45 0 0.0 5.0 0.04 0.33 0.33 93 1011.8
20260509212555 45 0 0.0 5.0 0.04 0.33 0.33 93 1011.8
20260509212051 45 0 0.0 4.0 0.03 0.32 0.32 93 1011.8
20260509211552 45 0 0.0 4.0 0.03 0.32 0.32 93 1011.8
20260509211051 45 0 0.0 3.0 0.03 0.32 0.32 93 1012.1
20260509210551 45 162 0.0 6.0 0.04 0.32 0.32 93 1012.1
20260509210105 45 0 0.0 6.0 0.04 0.32 0.32 93 1011.9
20260509205547 45 0 0.0 6.0 0.03 0.31 0.31 93 1011.8
20260509205050 45 0 0.0 2.0 0.04 0.31 0.31 93 1012.0
20260509204557 45 0 0.0 2.0 0.04 0.30 0.30 93 1011.9
20260509204052 45 0 0.0 0.0 0.05 0.30 0.30 93 1012.0
20260509203552 45 0 0.0 0.0 0.06 0.30 0.30 93 1012.1
20260509203052 45 0 0.0 1.0 0.06 0.29 0.29 93 1012.1
20260509202553 45 0 0.0 1.0 0.07 0.29 0.29 93 1011.9
20260509202054 45 0 0.0 6.0 0.08 0.29 0.29 93 1011.9
20260509201554 45 0 0.0 6.0 0.09 0.29 0.29 93 1011.9
20260509201050 45 0 0.0 6.0 0.10 0.29 0.29 93 1012.0
20260509200553 45 0 0.0 2.0 0.10 0.28 0.28 93 1012.2
20260509200105 45 0 0.0 2.0 0.10 0.28 0.28 93 1012.1
20260509195550 45 0 0.0 0.0 0.11 0.28 0.28 93 1012.2
20260509195051 45 0 0.0 0.0 0.11 0.27 0.27 93 1012.1
20260509194553 45 0 0.0 2.0 0.10 0.26 0.26 92 1012.3
20260509194051 45 0 0.0 2.0 0.10 0.25 0.25 92 1012.3
20260509193550 45 0 0.0 2.0 0.10 0.24 0.24 92 1012.4
20260509193056 45 0 0.0 7.0 0.10 0.23 0.23 92 1012.7
20260509192550 45 0 0.0 7.0 0.10 0.22 0.22 92 1012.5
20260509192050 45 0 0.0 6.0 0.09 0.21 0.21 92 1012.6
20260509191559 45 0 0.0 5.0 0.09 0.20 0.20 92 1012.6
20260509191053 45 0 0.0 2.0 0.09 0.19 0.19 92 1012.7
20260509190551 45 0 0.0 3.0 0.09 0.18 0.18 91 1012.7
20260509190100 45 0 0.0 3.0 0.10 0.18 0.18 91 1012.8
20260509185550 45 0 0.0 10.0 0.10 0.17 0.17 91 1012.7
20260509185051 45 0 0.0 10.0 0.10 0.16 0.16 91 1012.8
20260509184645 45 0 0.0 5.0 0.11 0.16 0.16 91 1012.8
20260509184052 45 0 0.0 4.0 0.11 0.15 0.15 91 1012.8
20260509183548 45 0 0.0 3.0 0.11 0.14 0.14 91 1012.8
20260509183114 45 0 0.0 3.0 0.10 0.13 0.13 90 1012.9
20260509182548 45 0 0.0 3.0 0.10 0.12 0.12 90 1013.1
20260509182048 46 0 0.0 2.0 0.10 0.12 0.12 90 1013.0
20260509181554 46 0 0.0 2.0 0.09 0.11 0.11 89 1013.2
20260509181050 46 0 0.0 2.0 0.09 0.10 0.10 89 1013.1
20260509180550 46 0 0.0 1.0 0.08 0.09 0.09 89 1013.0
20260509180107 46 0 0.0 1.0 0.07 0.08 0.08 89 1013.1
20260509175548 46 0 0.0 3.0 0.06 0.07 0.07 88 1013.3
20260509175048 46 0 0.0 3.0 0.05 0.06 0.06 88 1013.3
20260509174558 46 0 0.0 0.0 0.04 0.05 0.05 88 1013.3
20260509174048 46 0 0.0 0.0 0.03 0.04 0.04 87 1013.3
20260509173548 46 0 0.0 0.0 0.02 0.03 0.03 86 1013.3
20260509173105 46 0 0.0 1.0 0.02 0.03 0.03 86 1013.2
20260509172550 46 0 0.0 4.0 0.01 0.02 0.02 85 1013.4
20260509172051 46 0 0.0 5.0 0.01 0.02 0.02 84 1013.2
20260509171558 46 0 0.0 5.0 0.01 0.02 0.02 84 1013.3
20260509171053 47 0 0.0 4.0 0.01 0.01 0.01 83 1013.3
20260509170553 47 0 0.0 5.0 0.01 0.01 0.01 82 1013.2
20260509170101 47 0 0.0 5.0 0.01 0.01 0.01 82 1013.3
20260509165547 47 0 0.0 6.0 0.01 0.01 0.01 81 1013.4
20260509165048 48 0 0.0 6.0 0.01 0.01 0.01 80 1013.4
20260509164602 48 0 0.0 6.0 0.01 0.01 0.01 80 1013.2
20260509164048 48 0 0.0 4.0 0.01 0.01 0.01 79 1013.5
20260509163548 49 0 0.0 3.0 0.01 0.01 0.01 80 1013.5
20260509163111 49 0 0.0 3.0 0.01 0.01 0.01 79 1013.4
20260509162552 49 0 0.0 1.0 0.01 0.01 0.01 78 1013.4
20260509162052 49 0 0.0 0.0 0.01 0.01 0.01 76 1013.6
20260509161601 50 0 0.0 0.0 0.01 0.01 0.01 77 1013.6
20260509161048 50 0 0.0 0.0 0.00 0.00 0.00 76 1013.6
20260509160551 50 0 0.0 0.0 0.00 0.00 0.00 76 1013.8
20260509160055 50 0 0.0 2.0 0.00 0.00 0.00 74 1013.8
20260509155550 50 0 0.0 2.0 0.00 0.00 0.00 72 1013.8
20260509155050 50 0 0.0 1.0 0.00 0.00 0.00 70 1013.7
20260509154559 51 0 0.0 2.0 0.00 0.00 0.00 68 1013.7
20260509154053 51 0 0.0 2.0 0.00 0.00 0.00 67 1013.7
20260509153617 51 0 0.0 2.0 0.00 0.00 0.00 67 1013.7
20260509153058 51 0 0.0 3.0 0.00 0.00 0.00 63 1013.8
20260509152549 52 0 0.0 3.0 0.00 0.00 0.00 62 1013.7
20260509152048 52 0 0.0 5.0 0.00 0.00 0.00 59 1013.7
20260509151557 52 0 0.0 5.0 0.00 0.00 0.00 55 1013.8
20260509151048 53 0 0.0 4.0 0.00 0.00 0.00 53 1013.6
20260509150551 53 0 0.0 2.0 0.00 0.00 0.00 50 1013.7
20260509150058 53 0 0.0 0.0 0.00 0.00 0.00 49 1013.5
20260509145548 53 0 0.0 0.0 0.00 0.00 0.00 48 1013.4
20260509145047 53 0 0.0 4.0 0.00 0.00 0.00 49 1013.3
20260509144558 52 0 0.0 5.0 0.00 0.00 0.00 49 1013.4
20260509144048 52 0 0.0 5.0 0.00 0.00 0.00 48 1013.4
20260509143548 53 0 0.0 5.0 0.00 0.00 0.00 48 1013.6
20260509143059 53 0 0.0 5.0 0.00 0.00 0.00 48 1013.5
20260509142550 53 0 0.0 2.0 0.00 0.00 0.00 48 1013.2
20260509142051 53 0 0.0 1.0 0.00 0.00 0.00 50 1013.3
20260509141602 52 0 0.0 0.0 0.00 0.00 0.00 51 1013.4
20260509141055 52 0 0.0 0.0 0.00 0.00 0.00 51 1013.4
20260509140550 52 0 0.0 4.0 0.00 0.00 0.00 52 1013.4
20260509140100 52 0 0.0 4.0 0.00 0.00 0.00 52 1013.5
20260509135548 52 0 0.0 4.0 0.00 0.00 0.00 52 1013.4
20260509135051 52 0 0.0 0.0 0.00 0.00 0.00 52 1013.3
20260509134551 51 0 0.0 0.0 0.00 0.00 0.00 53 1013.5
20260509134052 51 0 0.0 3.0 0.00 0.00 0.00 54 1013.2
20260509133550 50 0 0.0 3.0 0.00 0.00 0.00 57 1013.4
20260509133055 49 0 0.0 0.0 0.00 0.00 0.00 58 1013.2
20260509132549 48 0 0.0 0.0 0.00 0.00 0.00 59 1013.3
20260509132047 47 0 0.0 0.0 0.00 0.00 0.00 61 1013.4
20260509131600 47 0 0.0 0.0 0.00 0.00 0.00 62 1013.4
20260509131049 46 0 0.0 0.0 0.00 0.00 0.00 63 1013.4
20260509130553 46 0 0.0 0.0 0.00 0.00 0.00 63 1013.6
20260509130101 45 0 0.0 0.0 0.00 0.00 0.00 64 1013.7
20260509125548 45 0 0.0 0.0 0.00 0.00 0.00 65 1013.7
20260509125050 44 0 0.0 0.0 0.00 0.00 0.00 65 1013.8
20260509124558 44 0 0.0 0.0 0.00 0.00 0.00 67 1013.8
20260509124048 44 0 0.0 0.0 0.00 0.00 0.00 68 1013.9
20260509123550 43 0 0.0 0.0 0.00 0.00 0.00 68 1014.0
20260509123059 42 0 0.0 0.0 0.00 0.00 0.00 70 1014.1
20260509122548 41 0 0.0 0.0 0.00 0.00 0.00 71 1014.1
20260509122052 40 0 0.0 0.0 0.00 0.00 0.00 72 1014.1
20260509121552 39 0 0.0 0.0 0.00 0.00 0.00 74 1014.3
20260509121054 39 0 0.0 0.0 0.00 0.00 0.00 76 1014.3
20260509120551 38 0 0.0 0.0 0.00 0.00 0.00 78 1014.3
20260509120055 38 0 0.0 0.0 0.00 0.00 0.00 78 1014.5
20260509115551 37 0 0.0 0.0 0.00 0.00 0.00 79 1014.4
20260509115051 36 0 0.0 0.0 0.00 0.00 0.00 80 1014.4
20260509114552 36 0 0.0 0.0 0.00 0.00 0.00 83 1014.5
20260509114051 35 0 0.0 0.0 0.00 0.00 0.00 85 1014.5
20260509113553 35 0 0.0 0.0 0.00 0.00 0.00 87 1014.4
20260509113116 34 0 0.0 0.0 0.00 0.00 0.00 88 1014.6
20260509112552 34 0 0.0 0.0 0.00 0.00 0.00 91 1014.4
20260509112052 33 0 0.0 0.0 0.00 0.00 0.00 93 1014.4
20260509111602 32 0 0.0 0.0 0.00 0.00 0.00 93 1014.5
20260509111052 31 0 0.0 0.0 0.00 0.00 0.00 93 1014.4
20260509110552 31 0 0.0 0.0 0.00 0.00 0.00 93 1014.5
20260509110057 30 0 0.0 0.0 0.00 0.00 0.00 93 1014.5
20260509105552 30 0 0.0 0.0 0.00 0.00 0.00 93 1014.4
20260509105052 29 0 0.0 0.0 0.00 0.00 0.00 93 1014.5
20260509104558 29 0 0.0 0.0 0.00 0.00 0.00 93 1014.4
20260509104056 29 0 0.0 0.0 0.00 0.00 0.00 92 1014.2
20260509103552 29 0 0.0 0.0 0.00 0.00 0.00 92 1014.2
20260509103059 29 0 0.0 0.0 0.00 0.00 0.00 92 1014.2
20260509102552 29 0 0.0 0.0 0.00 0.00 0.00 92 1014.0
20260509102053 29 0 0.0 0.0 0.00 0.00 0.00 92 1014.0
20260509101556 29 0 0.0 0.0 0.00 0.00 0.00 92 1014.0
20260509101052 29 0 0.0 0.0 0.00 0.00 0.00 92 1014.0
20260509100552 29 0 0.0 0.0 0.00 0.00 0.00 92 1013.9
20260509100109 29 0 0.0 0.0 0.00 0.00 0.00 92 1014.0
20260509095552 29 0 0.0 0.0 0.00 0.00 0.00 92 1013.9
20260509095052 29 0 0.0 0.0 0.00 0.00 0.00 92 1013.8
20260509094603 29 0 0.0 0.0 0.00 0.00 0.00 92 1013.6
20260509094052 29 0 0.0 0.0 0.00 0.00 0.00 91 1013.4
20260509093552 29 0 0.0 0.0 0.00 0.00 0.00 91 1013.2
20260509093107 29 0 0.0 0.0 0.00 0.00 0.00 91 1013.3
20260509092556 29 0 0.0 0.0 0.00 0.00 0.00 91 1013.2
20260509092051 29 0 0.0 0.0 0.00 0.00 0.00 91 1013.2
20260509091606 29 0 0.0 0.0 0.00 0.00 0.00 91 1013.2
20260509091051 29 0 0.0 0.0 0.00 0.00 0.00 91 1013.3
20260509090553 29 0 0.0 0.0 0.00 0.00 0.00 91 1013.2
20260509090057 29 0 0.0 0.0 0.00 0.00 0.00 91 1013.1
20260509085556 29 0 0.0 0.0 0.00 0.00 0.00 90 1013.0
20260509085055 29 0 0.0 0.0 0.00 0.00 0.00 90 1013.0
20260509084554 29 0 0.0 0.0 0.00 0.00 0.00 90 1013.0
20260509084052 29 0 0.0 0.0 0.00 0.00 0.00 90 1013.0
20260509083553 29 0 0.0 0.0 0.00 0.00 0.00 90 1012.9
20260509083052 30 0 0.0 0.0 0.00 0.00 0.00 90 1013.0
20260509082552 30 0 0.0 0.0 0.00 0.00 0.00 90 1013.2
20260509082052 30 0 0.0 0.0 0.00 0.00 0.00 89 1013.0
20260509081559 30 0 0.0 0.0 0.00 0.00 0.00 89 1013.0
20260509081052 30 0 0.0 0.0 0.00 0.00 0.00 89 1012.9
20260509080550 30 0 0.0 0.0 0.00 0.00 0.00 89 1013.0
20260509080058 30 0 0.0 0.0 0.00 0.00 0.00 89 1013.1
20260509075551 30 0 0.0 0.0 0.00 0.00 0.00 88 1013.1
20260509075051 30 0 0.0 0.0 0.00 0.00 0.00 89 1013.2
20260509074550 31 0 0.0 0.0 0.00 0.00 0.00 88 1013.1
20260509074048 31 0 0.0 0.0 0.00 0.00 0.00 88 1013.1
20260509073555 31 0 0.0 0.0 0.00 0.00 0.00 87 1013.0
20260509073104 31 0 0.0 0.0 0.00 0.00 0.00 87 1013.0
20260509072552 31 0 0.0 0.0 0.00 0.00 0.00 87 1013.1
20260509072052 31 0 0.0 0.0 0.00 0.00 0.00 87 1013.0
20260509071553 32 0 0.0 0.0 0.00 0.00 0.00 86 1013.2
20260509071051 32 0 0.0 0.0 0.00 0.00 0.00 86 1013.0
20260509070551 32 0 0.0 0.0 0.00 0.00 0.00 86 1013.0
20260509070057 32 0 0.0 0.0 0.00 0.00 0.00 85 1013.1
20260509065550 32 0 0.0 0.0 0.00 0.00 0.00 85 1013.1